Flag for Australia Weather past 2 weeks in Lord Howe Island, Lord Howe Island, Australia

Now
74 °F

Mild.


Feels Like: 76 °F
Forecast: 73 / 75 °F
Wind: 13 mph from East

Location: Lord Howe Island

Current Time: Feb 27, 2015 at 6:48:58 PM

Latest Report: Feb 27, 2015 at 6:00 PM


Visibility: N/A

Pressure: 29.86 "Hg

Humidity: 70%

Dew point: 64 °F

Location of Lord Howe IslandLocation

Historic Weather in Lord Howe Island — Graph

°F

Lord Howe Island temperature yesterday

Maximum temperature yesterday: 77 °F (at 12:00 PM)
Minimum temperature yesterday: 68 °F (at 5:00 AM)
Average temperature yesterday: 73 °F

Past Weeks' High & Low Weather Summary

 TemperatureHumidityPressure
High77 °F (Feb 24, 3:00 PM)93% (Feb 22, 11:00 AM)30.24 "Hg (Feb 22, 11:00 AM)
Low68 °F (Feb 26, 5:00 AM)55% (Feb 13, 9:00 AM)29.82 "Hg (Feb 26, 5:00 PM)
Average74 °F71%30.06 "Hg
* Reported Feb 12 5:00 PM — Feb 27 5:00 PM, Lord Howe Island, Weather by CustomWeather, © 2015

Note: Actual official high and low records may vary slightly from our data, if they occured in-between our weather recording intervals... More about our weather records

Advertising

Lord Howe Island weather history for previous 24 hours

 ConditionsComfort  
Time TempWeatherWind HumidityBarometerVisibility
5:00 PM
Fri, Feb 27
75 °FMild.12 mph68%29.86 "HgN/A
3:00 PM76 °FPartly sunny.12 mph64%29.86 "Hg16 mi
2:00 PM77 °FMild.12 mph66%29.87 "HgN/A
12:00 PM76 °FMild.12 mph66%29.89 "HgN/A
11:00 AM77 °FWarm.13 mph68%29.89 "HgN/A
9:00 AM76 °FPartly sunny.13 mph69%29.88 "Hg12 mi
8:00 AM75 °FMild.10 mph73%29.87 "HgN/A
6:00 AM72 °FPassing clouds.9 mph81%29.83 "Hg9 mi
5:00 AM72 °FMild.9 mph80%29.82 "HgN/A
3:00 AM71 °FMild.8 mph81%29.82 "Hg6 mi
2:00 AM72 °FMild.8 mph81%29.83 "HgN/A
12:00 AM72 °FOvercast.8 mph79%29.85 "HgN/A
11:00 PM
Thu, Feb 26
72 °FMild.7 mph79%29.86 "HgN/A
9:00 PM72 °FPassing clouds.8 mph75%29.85 "HgN/A
8:00 PM71 °FMild.8 mph75%29.83 "HgN/A
6:00 PM74 °FMild.6 mph65%29.82 "HgN/A
Weather by CustomWeather, © 2015

See weather overviewHow to use our weather pages